Location: Roland
(31.1349°N, 85.4372°W)
Time: 19:19:26
(UTC+00:00)

Vanguard 2 Rocket - Pass Details

Date: 20 April 2021
Orbit: 554 x 3326 km, 32.9° (Epoch: 13 May)

Event Time Altitude Azimuth Distance (km) Brightness Sun altitude
Rises 02:33:08 0° 286° (WNW) 6,816 12.4 -28.0°
Reaches altitude 10° 02:39:05 10° 277° (W) 5,397 11.5 -29.0°
Maximum altitude 02:50:26 27° 227° (SW) 3,188 9.6 -30.9°
Enters shadow 02:54:21 22° 197° (SSW) 3,085 9.3 -31.6°
